Location: Little Suamico
(44.7175°N, 88.0093°W)
Time: 01:20:14
(UTC+00:00)

X-37B - Visible Passes

Search period start: 20 April 2021 00:00
Search period end: 30 April 2021 00:00
Orbit: 380 x 394 km, 45.0° (Epoch: 07 April)

Date Brightness Start Highest point End Pass type
(mag) Time Alt. Az. Time Alt. Az. Time Alt. Az.
20 Apr 0.5 09:05:56 71° S 09:06:01 71° SSE 09:09:12 10° E visible
21 Apr 3.3 08:09:58 17° E 08:09:58 17° E 08:10:49 10° E visible
21 Apr 0.6 09:42:15 20° W 09:44:18 82° N 09:47:29 10° E visible
22 Apr 0.9 08:46:18 65° E 08:46:18 65° E 08:49:06 10° E visible
22 Apr 0.6 10:19:23 10° W 10:22:35 84° SSW 10:25:46 10° ESE visible
23 Apr 3.7 07:50:24 12° E 07:50:24 12° E 07:50:44 10° E visible
23 Apr 0.6 09:22:41 28° W 09:24:12 84° N 09:27:24 10° E visible
24 Apr 1.8 08:26:50 40° E 08:26:50 40° E 08:29:00 10° E visible
24 Apr 0.6 09:59:16 10° W 10:02:27 63° SSW 10:05:36 10° ESE visible
25 Apr 0.5 09:03:23 51° W 09:04:06 83° S 09:07:17 10° ESE visible
26 Apr 2.9 08:07:47 20° E 08:07:47 20° E 08:08:56 10° E visible
26 Apr 1.0 09:40:05 17° W 09:42:15 43° SSW 09:45:18 10° SE visible
27 Apr 1.2 08:44:42 45° SE 08:44:42 45° SE 08:47:07 10° ESE visible
28 Apr 1.6 09:21:58 27° SSW 09:22:01 27° SSW 09:24:47 10° SSE visible
